NOAA 16 DEB, 41084

Orbit data source: Space-Track

NOAA 16 DEB, 41084 is space debris in SSO originally from a launch on Thu, 21 Sep 2000 UTC launched from the Air Force Western Test Range (AFWTR). Debris objects in space refer to the collection of defunct objects orbiting the Earth. Examples of debris include non-operational satellites, rocket bodies, and fragments generated from explosions, collisions, or faulty payload assembly.

Loading next visibility...
Identifier
41084, 2000-055AT
Orbit
SSO
Last TLE update
7 hours ago
Origin
Manufacturer
Unknown
Mission
Spacecraft
Bus & Motor
Unknown
Mass
Unknown
Launch date (UTC)
2000-09-21 (25 years ago)
Launch vehicle
Unknown
Launch site
Air Force Western Test Range (AFWTR)
Object type
Payload
Rocket body
Debris
Shape & HBR
Unknown
Radar Cross Section
Small (<0.1 m²)

Expand to show TLE details & history

TLE from 7 hours ago
0 NOAA 16 DEB
1 41084U 00055AT  25199.69603997  .00000905  00000-0  42456-3 0  9990
2 41084  98.7106 285.1762 0017542 108.3417 251.9670 14.22529854498737
Epoch: 2025-07-18T16:42Z
TLE epoch observation values (Epoch: 2025-07-18T16:42:17.853Z)
Latitude
-0.00008°
Longitude
97.85803°
Altitude
823.656 km
Speed
7.439 km/s
True Right ascension
19h 00m 42s
True Declination
0° 00' 00"
Sunlit
Object was in full shadow at epoch
Visualization orbit readout
Latitude
40.03604°
Longitude
90.78743°
Altitude
817.531 km
Speed
7.451 km/s
Apparent Right ascension
21h 16m 12s
Apparent Declination
4° 06' 13"
Sunlit
Object is in daylight
Visualization observer readout
Local Sidereal Time
12:26:26
Azimuth
56.521° ENE
Elevation
-28.057°
Doppler factor
1
Orbital elements
Apogee altitude
826.581 km
Perigee altitude
801.349 km
Semi-major axis
7,192.102 km
Eccentricity
0.00175
Inclination
98.7106°
RAAN
285.1762°
Arg. of periapsis
108.3417°
True anomaly
251.77599°
Mean anomaly
251.967°
Eccentric anomaly
251.87148°
Mean motion
3.55844 °/min
Orbital period
101.17 mins
BSTAR
0.00042456
Loading maneuver chart data...
Loading SW <> Apogee altitude chart data...
Loading historical data...
Loading historical data...
Loading historical data...
Loading historical data...
Loading historical data...
Loading historical data...
Loading historical data...
|